Location: Moscow
(55.7500°N, 37.5830°E)
Time: 20:15:59
(UTC+03:00)

Transit 2A Rocket - Pass Details

Date: 03 December 2021
Orbit: 584 x 917 km, 66.7° (Epoch: 23 January)

Event Time Altitude Azimuth Distance (km) Brightness Sun altitude
Rises 17:02:38 0° 316° (NW) 3,567 8.7 -8.1°
Reaches altitude 10° 17:05:17 10° 310° (NW) 2,619 8.1 -8.4°
Maximum altitude 17:11:04 45° 241° (WSW) 1,216 6.7 -9.1°
Drops below altitude 10° 17:16:35 10° 170° (S) 2,500 7.9 -9.8°
Sets 17:19:04 0° 164° (SSE) 3,390 8.5 -10.1°
